This is the latest recevied weather packets stored in our database for station/object AB4KY. If no packets are shown the sender has not sent any weather packets the latest 10 day(s).
| Time | Temp. | Humidity | Pressure | Rain* | Wind** | Luminosity | Snow |
|---|---|---|---|---|---|---|---|
| 1778076435 | 10° C | 86% | 1010.4 hPa | 0 mm | - | 302 W/m² | - |
| 1778076132 | 10.56° C | 87% | 1010.7 hPa | 0 mm | - | 292 W/m² | - |
| 1778075829 | 10.56° C | 87% | 1010.5 hPa | 0 mm | - | 369 W/m² | - |
| 1778075525 | 10.56° C | 89% | 1010.2 hPa | 0 mm | - | 387 W/m² | - |
| 1778075222 | 10.56° C | 88% | 1010.3 hPa | 0 mm | - | 345 W/m² | - |
| 1778074918 | 10° C | 89% | 1010.2 hPa | 0 mm | - | 247 W/m² | - |
| 1778074615 | 9.44° C | 91% | 1010.3 hPa | 0 mm | - | 276 W/m² | - |
| 1778074312 | 8.89° C | 92% | 1010.1 hPa | 0 mm | - | 204 W/m² | - |
| 1778074009 | 8.89° C | 93% | 1010.2 hPa | 0 mm | - | 160 W/m² | - |
| 1778073706 | 8.89° C | 93% | 1010.1 hPa | 0 mm | - | 95 W/m² | - |
| 1778073404 | 8.89° C | 94% | 1009.8 hPa | 0 mm | - | 114 W/m² | - |
| 1778073100 | 8.33° C | 95% | 1009.6 hPa | 0 mm | - | 113 W/m² | - |
| 1778072797 | 8.33° C | 96% | 1009.8 hPa | 0 mm | - | 138 W/m² | - |
| 1778072494 | 8.33° C | 96% | 1009.9 hPa | 0 mm | - | 110 W/m² | - |
| 1778072192 | 7.78° C | 97% | 1010.2 hPa | 0 mm | - | 115 W/m² | - |
| 1778071889 | 7.78° C | 99% | 1010.1 hPa | 0 mm | - | 86 W/m² | - |
| 1778071587 | 7.22° C | 99% | 1009.9 hPa | 0 mm | - | 98 W/m² | - |
| 1778071285 | 7.22° C | 99% | 1009.5 hPa | 0 mm | - | 73 W/m² | - |
| 1778070982 | 7.78° C | 99% | 1010.1 hPa | 0 mm | - | 59 W/m² | - |
| 1778070681 | 7.78° C | 99% | 1009.9 hPa | 0 mm | - | 82 W/m² | - |
| 1778070377 | 7.78° C | 99% | 1009.8 hPa | 0 mm | - | 54 W/m² | - |
| 1778070075 | 7.78° C | 99% | 1009.6 hPa | 0 mm | - | 84 W/m² | - |
| 1778069773 | 7.22° C | 99% | 1009.6 hPa | 0 mm | - | 69 W/m² | - |
| 1778069469 | 7.22° C | 99% | 1009.4 hPa | 0 mm | - | 56 W/m² | - |
| 1778069167 | 7.22° C | 99% | 1009.8 hPa | 0 mm | - | 43 W/m² | - |
* Rain latest hour (hover to see other rain measurements)
** Current wind speed in m/s (hover to see current wind gust speed)